Location: Beccas
(43.4309°N, 0.1528°E)
Time: 23:27:57
(UTC+00:00)

Okean 2 Rocket - Pass Details

Date: 15 October 2021
Orbit: 617 x 641 km, 82.5° (Epoch: 26 November)

Event Time Altitude Azimuth Distance (km) Brightness Sun altitude
Rises 17:31:41 0° 189° (S) 2,888 6.7 -3.6°
Reaches altitude 10° 17:33:53 10° 190° (S) 1,990 5.9 -4.0°
Maximum altitude 17:38:18 82° 277° (W) 639 3.3 -4.8°
Drops below altitude 10° 17:42:48 10° 7° (N) 2,021 5.6 -5.6°
Sets 17:45:04 0° 8° (N) 2,938 6.4 -6.0°
